Terminal Aerodrome Forecast
Issued by NWS

Home | Current Version | Previous Version | Text Only | Print | Product List | Glossary On
Versions: 1 2 3 4 5 6 7 8 9 10 11 12 13 14 15 16 17 18 19 20 21 22 23 24 25 26 27 28 29 30 31 32 33 34 35 36 37 38 39 40 41
000
FTUS45 KCYS 120300 AAC
TAFLAR
TAF AMD
KLAR 120337Z 1204/1224 33010KT 1/2SM +TSRA SCT021 BKN035CB
     FM120430 18010KT P6SM BKN050
     FM120800 19006KT P6SM SCT100
     FM121500 01009KT P6SM SCT060
     FM122000 08010G22KT P6SM VCTS BKN060CB=

USA.gov is the U.S. government's official web portal to all federal, state and local government web resources and services.